Temperature
11 11 11 12 11 11 11 12 11 11 12 13 14 15 15 15 15 16 16 16 16 16 16 16 16 16 16 16 16 16 16 16 16 16 16 16 16 16
11 11 11 11 11 11 11 11 11 11 11 12 13 14 14 15 15 15 16 15 15 16 16 16 16 16 16 16 16 16 16 16 16 16 16 16 16 16
10 10 11 11 11 11 11 11 11 11 11 12 12 13 14 14 15 15 15 15 15 15 15 15 15 15 15 16 16 16 16 16 16 16 16 16 16 16
10 10 10 10 10 11 11 11 11 11 11 11 12 12 13 13 14 14 15 15 15 15 15 15 15 15 15 16 16 16 16 16 16 16 16 16 16 16
9 9 9 10 10 10 10 10 11 11 11 11 11 12 12 12 13 13 14 14 14 14 14 15 15 15 15 15 16 16 16 16 16 16 16 16 16 16
9 9 9 9 9 10 10 10 10 10 10 10 11 11 12 12 12 13 13 13 14 14 14 14 14 15 15 15 15 16 16 16 16 16 16 16 16 16
8 8 9 9 9 9 9 10 10 10 10 10 10 11 11 11 12 12 12 13 13 13 13 13 14 14 14 15 15 15 15 16 16 16 16 16 16 16
8 8 8 8 9 9 9 9 10 10 10 10 10 10 11 11 11 11 12 12 12 12 13 13 13 13 14 14 14 15 15 15 15 15 15 16 16 16
8 8 8 8 8 8 9 9 9 9 10 10 10 10 10 11 11 11 11 12 12 12 12 12 12 13 13 13 14 14 14 15 15 15 15 15 15 15
7 7 7 8 8 8 8 8 9 9 9 10 10 10 10 10 11 11 11 11 11 11 12 12 12 12 12 12 13 13 13 14 14 14 14 14 14 14
7 7 7 7 8 8 8 8 8 9 9 9 10 10 10 10 10 10 11 11 11 11 11 11 11 11 12 12 12 12 13 13 13 13 14 14 14 14
7 7 7 7 7 7 7 8 8 8 9 9 9 10 10 10 10 10 10 11 11 10 11 11 11 11 11 11 11 12 12 12 12 13 13 13 13 13
7 7 7 7 7 7 7 7 8 8 8 9 9 9 10 10 10 10 10 10 11 11 11 11 11 11 11 11 11 11 12 12 12 12 12 12 12 12
6 7 7 7 7 7 7 7 8 8 8 8 9 9 9 10 10 10 10 10 10 11 11 11 11 12 12 12 11 11 11 11 11 11 12 12 12 12
6 6 6 7 7 7 7 7 7 7 8 8 9 9 9 10 10 10 10 10 10 10 10 11 11 11 12 12 12 12 11 11 11 11 11 11 11 11
6 6 6 6 6 7 7 7 7 7 8 8 9 9 9 9 9 9 9 9 9 10 10 10 10 11 11 11 12 12 12 11 11 11 11 11 11 11
6 6 6 6 6 6 7 7 7 7 8 8 8 9 9 9 9 9 9 9 9 10 10 10 10 10 10 11 11 11 11 11 11 11 11 11 10 10
6 6 6 6 6 6 7 7 7 7 8 8 8 9 9 9 9 9 9 9 9 9 10 10 10 9 9 10 10 11 11 11 11 10 10 10 10 10
6 6 6 6 6 6 7 7 7 7 8 8 8 8 8 9 9 9 9 9 9 9 9 10 10 10 9 9 10 10 10 10 10 10 10 10 10 10
6 6 6 6 6 7 7 7 7 7 8 8 8 8 8 8 9 9 9 9 9 9 9 9 9 10 10 10 10 10 10 10 10 10 10 9 9 9
6 6 6 7 7 7 7 7 7 7 8 8 8 8 8 8 9 9 9 9 9 9 9 9 9 9 9 10 10 10 9 9 10 10 10 9 9 8
7 7 7 7 7 7 7 7 7 7 8 8 8 8 8 8 9 9 9 9 9 9 9 9 9 9 9 9 10 10 9 9 9 9 9 9 9 9
7 7 7 7 7 7 7 7 8 8 8 8 8 8 8 8 8 8 8 9 9 9 9 9 9 9 9 9 9 9 9 9 8 8 8 8 8 9
Wind_Speed
7 7 6 6 5 5 4 4 3 4 3 2 2 1 1 2 5 8 9 12 14 14 14 14 15 16 17 18 18 19 19 20 20 21 21 22 23 23
6 7 7 6 6 6 5 5 4 4 4 2 2 2 1 0 2 4 6 10 12 13 13 13 13 13 14 14 15 16 17 18 19 19 19 19 19 20
7 8 9 8 7 6 6 5 5 5 6 4 2 1 1 1 2 4 5 6 8 12 13 13 12 12 11 11 11 12 13 14 15 16 17 17 17 17
10 9 10 8 9 7 7 7 6 6 5 5 2 1 0 2 3 4 5 6 7 11 13 12 11 10 9 9 9 9 9 10 11 12 13 14 14 14
10 10 10 10 10 8 9 8 7 6 5 5 3 2 1 2 3 3 6 5 6 10 12 11 11 10 9 8 8 7 8 8 9 9 10 10 11 11
11 11 11 11 11 11 9 10 8 7 6 5 5 3 2 2 4 4 4 4 5 6 8 9 11 11 9 9 8 7 7 7 8 8 8 8 9 9
11 11 11 13 14 12 9 10 10 8 7 6 6 4 4 4 5 4 5 6 4 4 5 5 6 6 6 7 7 7 7 7 7 7 7 7 7 7
11 11 11 13 15 15 16 14 13 11 10 8 6 7 7 6 5 6 6 6 4 5 5 4 3 4 4 4 6 7 8 8 8 8 8 8 8 8
12 11 10 11 12 11 12 14 15 16 14 10 9 9 8 8 9 9 8 7 5 7 6 4 3 3 3 5 7 8 9 9 10 10 10 10 10 10
12 12 11 11 11 10 11 10 10 12 13 10 9 9 8 9 9 9 8 6 5 5 5 4 3 3 3 5 7 9 10 11 12 12 13 13 14 13
11 11 12 12 13 13 11 11 10 9 10 12 11 9 9 10 9 8 9 8 5 4 3 4 4 4 3 2 6 9 11 12 13 14 15 16 17 16
9 10 13 13 13 14 12 11 11 10 8 9 9 8 8 9 12 10 10 9 6 4 5 6 6 5 4 2 3 5 8 11 13 14 15 15 14 12
8 8 8 13 14 14 13 11 11 9 8 9 8 7 7 7 8 9 8 9 8 4 8 7 6 5 5 4 3 3 4 5 7 9 12 12 12 11
8 7 7 11 13 14 12 11 11 10 7 7 7 7 7 7 7 8 9 7 5 6 12 9 5 7 6 5 4 4 4 5 6 6 8 12 13 13
6 8 8 10 10 9 11 12 10 8 7 7 8 7 6 7 7 6 7 7 5 7 13 8 7 8 6 6 7 6 5 4 5 6 6 6 6 7
4 5 6 7 7 6 6 8 7 8 8 8 7 6 5 6 7 6 6 7 6 5 6 9 10 11 5 6 8 8 7 7 7 7 6 5 6 6
2 2 2 3 4 5 5 6 6 7 7 6 6 6 6 6 6 6 6 7 6 7 7 5 6 6 5 7 7 9 9 7 8 8 7 6 4 5
3 2 3 3 4 5 6 6 7 7 7 7 6 7 7 7 6 6 7 7 7 7 8 7 8 6 4 3 4 10 8 7 8 9 7 6 6 5
3 3 3 4 4 5 5 6 6 6 6 7 7 7 7 7 7 7 7 8 8 8 9 9 9 8 8 6 4 6 9 9 10 8 7 5 6 6
3 3 4 4 4 5 5 5 5 6 6 6 7 7 7 7 7 7 8 8 8 8 8 9 9 9 8 8 6 5 10 11 10 10 7 4 4 6
3 4 4 4 4 4 5 5 6 6 7 7 6 7 7 7 7 7 8 10 9 8 10 9 8 9 7 7 7 5 6 10 11 8 8 7 6 6
4 4 4 4 4 4 5 5 5 6 6 6 6 7 7 7 8 8 8 9 8 8 8 8 10 9 6 7 8 9 8 7 7 11 10 7 6 8
4 4 4 4 4 4 4 6 7 6 6 7 7 7 7 7 7 8 8 8 8 9 9 9 9 7 6 7 9 9 12 11 8 7 4 3 4 6
Wind_Direction
242 238 234 238 232 231 231 232 250 278 289 299 308 336 297 208 194 188 187 184 180 179 182 187 189 192 197 202 207 212 215 217 219 220 223 226 227 227
245 243 241 238 234 230 227 228 227 242 265 286 309 331 345 119 145 152 158 158 166 167 169 172 173 177 185 192 199 207 213 216 218 220 224 226 225 226
252 245 245 239 233 229 224 225 226 227 249 263 271 311 356 148 117 114 124 130 143 147 150 153 158 164 172 181 190 198 205 210 213 216 219 221 222 224
252 247 249 244 234 229 223 224 224 221 230 252 255 253 269 172 142 129 119 123 128 137 138 140 144 150 159 168 175 185 192 197 200 204 210 215 219 222
250 246 246 240 237 230 224 223 222 222 219 233 246 231 198 171 145 129 123 117 116 123 121 122 127 131 136 144 153 162 172 180 187 192 198 205 211 216
251 247 244 237 235 230 226 223 218 216 216 222 233 231 209 186 162 152 143 130 122 116 108 108 110 109 113 122 133 146 157 167 177 184 189 198 206 211
254 250 246 241 236 229 225 218 212 210 209 214 221 217 210 188 181 161 159 139 124 130 124 112 107 100 96 101 112 131 142 150 158 166 174 182 189 191
256 254 251 251 245 235 228 218 208 205 205 205 212 218 214 201 187 168 158 156 158 154 140 123 111 102 82 82 102 118 128 137 144 147 150 153 154 157
251 251 253 248 235 232 231 227 220 215 204 199 206 212 208 202 190 183 179 170 159 155 142 132 123 107 82 75 98 111 118 125 129 132 133 133 132 130
247 243 243 246 239 227 224 224 223 223 217 211 211 213 210 200 194 188 174 147 114 141 146 136 134 116 98 78 86 103 111 115 118 120 121 120 118 115
249 241 236 239 235 223 222 221 222 229 225 216 210 211 202 191 180 171 167 161 159 158 146 130 134 121 110 95 83 96 105 110 113 116 119 120 118 110
251 243 236 232 228 215 216 215 217 221 216 208 207 208 203 194 183 183 180 173 159 160 160 139 145 145 135 123 107 105 103 104 108 112 119 123 124 116
251 245 238 226 222 215 211 213 214 209 208 201 195 190 188 193 193 191 187 179 172 163 163 149 151 153 139 137 136 125 125 125 116 111 112 118 122 124
248 246 238 224 219 212 211 211 205 198 199 191 188 187 189 194 194 191 191 189 179 162 164 157 150 159 144 141 147 145 132 132 133 127 122 114 105 106
251 243 236 225 217 214 215 206 197 198 195 192 193 192 195 190 179 179 177 170 148 149 161 163 151 153 148 146 148 153 149 150 150 142 138 137 136 133
265 251 233 218 209 201 199 201 199 197 196 196 191 182 176 175 176 174 171 167 159 153 159 159 156 154 149 145 150 158 158 156 160 154 142 133 134 138
275 233 210 199 193 190 187 186 188 193 196 190 176 168 174 176 174 171 164 165 168 164 159 146 135 125 124 145 149 155 152 149 157 156 150 142 144 153
253 219 213 208 199 188 183 184 189 190 189 182 175 173 175 176 171 168 169 169 170 168 162 154 145 130 111 75 131 155 156 154 155 158 155 151 157 163
228 235 223 209 204 192 187 185 186 185 180 178 179 176 175 175 172 173 175 174 173 170 166 163 164 161 163 165 157 165 159 153 153 159 162 155 161 164
232 241 237 218 203 195 193 190 181 173 176 180 177 175 176 176 176 179 181 178 172 168 169 171 175 177 179 165 153 159 165 159 160 161 155 129 110 116
240 238 236 224 211 200 192 187 182 180 178 178 179 179 179 179 181 185 184 174 171 171 177 181 176 151 124 120 123 132 155 164 159 156 153 146 146 157
245 239 232 224 213 203 191 186 185 183 181 184 184 184 183 183 184 185 182 177 178 177 174 163 152 151 154 159 152 146 143 139 129 138 145 147 163 176
238 235 229 218 211 202 192 188 188 188 187 187 185 186 185 184 185 184 184 180 174 170 160 156 157 162 164 159 152 149 149 148 146 146 142 79 145 154
Height
1477 1478 1478 1479 1480 1480 1480 1479 1480 1477 1476 1476 1477 1478 1480 1483 1486 1489 1493 1496 1500 1504 1508 1512 1515 1519 1523 1527 1531 1534 1538 1541 1545 1548 1552 1555 1558 1561
1471 1471 1472 1473 1474 1475 1475 1475 1475 1475 1474 1473 1474 1475 1477 1479 1482 1485 1489 1492 1496 1500 1503 1507 1511 1514 1518 1522 1525 1529 1532 1536 1539 1542 1546 1549 1552 1555
1464 1465 1465 1467 1468 1469 1470 1470 1471 1471 1470 1470 1471 1472 1474 1476 1479 1482 1485 1488 1492 1496 1499 1503 1506 1510 1513 1517 1520 1524 1527 1530 1533 1536 1540 1543 1546 1549
1458 1458 1459 1460 1461 1462 1464 1465 1466 1466 1467 1466 1468 1469 1471 1473 1475 1478 1481 1485 1489 1492 1496 1499 1502 1506 1509 1512 1515 1519 1522 1525 1528 1531 1534 1537 1541 1543
1450 1451 1452 1453 1454 1455 1457 1459 1460 1462 1462 1463 1464 1466 1467 1470 1472 1475 1478 1482 1485 1489 1492 1496 1499 1502 1505 1508 1511 1514 1517 1520 1523 1526 1529 1532 1535 1538
1443 1443 1444 1445 1447 1449 1450 1452 1454 1456 1458 1459 1460 1462 1464 1467 1469 1472 1475 1478 1482 1485 1489 1493 1496 1499 1502 1505 1507 1510 1513 1516 1519 1521 1524 1527 1530 1533
1435 1436 1436 1438 1439 1441 1443 1446 1448 1450 1452 1453 1455 1458 1459 1462 1465 1468 1472 1475 1479 1482 1486 1489 1493 1496 1498 1501 1504 1507 1509 1512 1515 1518 1520 1523 1526 1529
1427 1428 1429 1430 1432 1434 1436 1439 1441 1444 1446 1448 1451 1452 1455 1458 1461 1464 1468 1472 1475 1479 1483 1487 1490 1493 1496 1498 1501 1504 1506 1509 1511 1514 1517 1519 1522 1524
1420 1420 1421 1422 1424 1426 1429 1432 1434 1437 1441 1443 1445 1447 1450 1453 1456 1459 1463 1467 1471 1475 1480 1483 1487 1490 1493 1496 1498 1501 1504 1506 1508 1511 1513 1516 1518 1520
1412 1413 1414 1415 1417 1420 1422 1424 1427 1431 1434 1437 1440 1443 1445 1448 1451 1455 1458 1463 1468 1472 1476 1480 1484 1487 1490 1493 1496 1499 1501 1503 1506 1508 1511 1513 1515 1517
1405 1406 1406 1408 1410 1413 1415 1417 1421 1424 1428 1432 1435 1438 1441 1444 1446 1450 1453 1457 1462 1466 1471 1476 1480 1484 1488 1491 1494 1497 1499 1502 1504 1506 1509 1511 1513 1515
1398 1399 1400 1401 1403 1406 1408 1411 1414 1418 1422 1427 1430 1433 1436 1439 1442 1445 1449 1453 1457 1462 1466 1472 1476 1481 1485 1489 1492 1494 1497 1500 1502 1504 1507 1509 1512 1514
1392 1392 1393 1395 1397 1399 1402 1405 1409 1413 1417 1421 1425 1428 1432 1435 1438 1441 1445 1449 1453 1458 1462 1467 1472 1476 1480 1484 1489 1492 1495 1498 1501 1503 1506 1508 1511 1513
1386 1387 1388 1390 1391 1394 1397 1400 1404 1408 1412 1415 1419 1423 1427 1430 1434 1437 1441 1446 1450 1455 1459 1463 1467 1471 1476 1480 1484 1489 1492 1496 1499 1502 1504 1507 1510 1512
1382 1382 1383 1385 1387 1389 1392 1395 1399 1402 1406 1410 1413 1418 1422 1427 1430 1434 1438 1441 1446 1450 1455 1459 1464 1468 1472 1476 1480 1485 1488 1493 1496 1500 1503 1506 1509 1511
1378 1379 1380 1381 1383 1385 1387 1390 1394 1397 1401 1405 1409 1414 1418 1422 1426 1430 1434 1437 1442 1446 1451 1455 1460 1465 1469 1473 1477 1481 1485 1489 1493 1497 1501 1504 1507 1510
1376 1376 1377 1378 1379 1381 1383 1386 1390 1394 1398 1402 1406 1410 1414 1418 1422 1426 1430 1434 1438 1442 1446 1451 1456 1460 1466 1470 1474 1478 1483 1487 1491 1495 1498 1502 1505 1509
1374 1374 1375 1376 1377 1379 1381 1384 1387 1390 1394 1399 1403 1407 1411 1415 1419 1423 1426 1430 1434 1438 1442 1447 1451 1456 1461 1466 1471 1474 1479 1484 1488 1492 1496 1500 1503 1507
1372 1373 1373 1374 1375 1377 1379 1382 1385 1388 1392 1396 1400 1404 1408 1412 1416 1419 1423 1426 1431 1435 1439 1443 1447 1452 1456 1461 1466 1471 1476 1480 1484 1489 1493 1498 1502 1506
1371 1371 1372 1373 1374 1376 1378 1381 1384 1387 1390 1394 1398 1402 1406 1409 1413 1416 1420 1423 1427 1431 1435 1440 1444 1448 1453 1458 1462 1467 1473 1478 1482 1485 1490 1495 1500 1504
1370 1370 1371 1372 1373 1375 1377 1379 1382 1385 1388 1392 1396 1399 1403 1407 1410 1413 1417 1420 1424 1428 1432 1436 1441 1447 1451 1456 1460 1464 1470 1475 1480 1484 1488 1492 1496 1500
1369 1369 1370 1371 1372 1373 1375 1377 1380 1383 1386 1390 1393 1397 1400 1404 1407 1411 1414 1417 1421 1425 1430 1434 1439 1443 1448 1452 1457 1461 1467 1472 1477 1482 1488 1491 1494 1497
1367 1368 1368 1369 1370 1372 1373 1376 1378 1381 1384 1387 1391 1394 1398 1401 1404 1408 1411 1415 1419 1422 1426 1431 1435 1440 1445 1450 1454 1459 1464 1469 1474 1479 1485 1490 1494 1497